Flag for Norway Weather past 2 weeks in Tananger, Norway

Now
61 °F

Passing clouds.


Feels Like: 61 °F
Forecast: 65 / 74 °F
Wind: 7 mph from Southeast

Location: Stavanger / Sola

Current Time: Jul 1, 2015 at 2:09:12 AM

Latest Report: Jul 1, 2015 at 12:50 AM


Visibility: N/A

Pressure: 30.21 "Hg

Humidity: 72%

Dew point: 52 °F

Location of TanangerLocation

Historic Weather in Tananger — Graph

°F

Tananger temperature yesterday

Maximum temperature yesterday: 63 °F (at 4:50 PM)
Minimum temperature yesterday: 50 °F (at 1:50 AM)
Average temperature yesterday: 58 °F

Past Weeks' High & Low Weather Summary

 TemperatureHumidityPressure
High66 °F (Jun 22, 2:20 PM)100% (Jun 17, 11:50 AM)30.21 "Hg (Jun 17, 11:50 AM)
Low45 °F (Jun 26, 3:50 AM)49% (Jun 22, 10:50 AM)29.68 "Hg (Jun 22, 3:50 PM)
Average54 °F81%29.94 "Hg
* Reported Jun 16 12:20 AM — Jul 1 12:50 AM, Tananger, Weather by CustomWeather, © 2015

Note: Actual official high and low records may vary slightly from our data, if they occured in-between our weather recording intervals... More about our weather records

Advertising

Tananger weather history for previous 24 hours

 ConditionsComfort  
Time TempWeatherWind HumidityBarometerVisibility
12:50 AM
Wed, Jul 1
61 °FPassing clouds.7 mph72%30.21 "HgN/A
12:20 AM61 °FPartly cloudy.7 mph68%30.18 "HgN/A
11:50 PM
Tue, Jun 30
61 °FBroken clouds.8 mph68%30.18 "HgN/A
11:20 PM61 °FPartly sunny.8 mph72%30.18 "HgN/A
10:50 PM61 °FPartly sunny.7 mph72%30.18 "HgN/A
10:20 PM61 °FPartly sunny.6 mph77%30.18 "HgN/A
9:50 PM61 °FPartly sunny.6 mph77%30.18 "HgN/A
9:20 PM61 °FPartly sunny.3 mph72%30.18 "HgN/A
8:50 PM63 °FPartly sunny.6 mph68%30.18 "HgN/A
8:20 PM63 °FPartly sunny.6 mph68%30.18 "HgN/A
7:50 PM63 °FBroken clouds.8 mph68%30.18 "HgN/A
6:50 PM63 °FPartly sunny.7 mph68%30.18 "HgN/A
6:20 PM61 °FPartly sunny.7 mph68%30.18 "HgN/A
5:50 PM63 °FPartly sunny.7 mph64%30.18 "HgN/A
4:50 PM63 °FPartly sunny.5 mph68%30.18 "HgN/A
4:20 PM61 °FPartly sunny.7 mph77%30.18 "HgN/A
3:50 PM61 °FBroken clouds.5 mph83%30.18 "HgN/A
2:50 PM59 °FBroken clouds.8 mph82%30.18 "HgN/A
2:20 PM61 °FBroken clouds.9 mph77%30.18 "HgN/A
1:50 PM61 °FBroken clouds.8 mph77%30.18 "HgN/A
1:20 PM61 °FBroken clouds.9 mph77%30.18 "HgN/A
12:50 PM61 °FScattered clouds.7 mph77%30.18 "HgN/A
12:20 PM61 °FScattered clouds.7 mph77%30.18 "HgN/A
11:50 AM61 °FScattered clouds.8 mph77%30.18 "HgN/A
11:20 AM61 °FScattered clouds.1 mph77%30.15 "HgN/A
10:50 AM61 °FPartly sunny.1 mph77%30.15 "HgN/A
10:20 AM57 °FPartly sunny.1 mph82%30.18 "HgN/A
9:50 AM55 °FPartly sunny.3 mph88%30.18 "HgN/A
9:20 AM55 °FPartly sunny.2 mph88%30.18 "HgN/A
8:50 AM54 °FPartly sunny.2 mph94%30.15 "Hg6 mi
8:20 AM55 °FFog.3 mph88%30.15 "Hg5 mi
7:50 AM54 °FFog.1 mph94%30.15 "Hg4 mi
7:20 AM54 °FFog.2 mph94%30.12 "Hg4 mi
6:50 AM54 °FFog.2 mph94%30.12 "Hg5 mi
6:20 AM52 °FFog.2 mph94%30.12 "Hg5 mi
5:50 AM52 °FPartly sunny.2 mph94%30.12 "Hg5 mi
5:20 AM50 °FSnow. Passing clouds.1 mph100%30.12 "Hg4 mi
4:50 AM52 °FPartly cloudy.2 mph94%30.12 "Hg6 mi
3:50 AM50 °FFog.2 mph94%30.12 "HgN/A
2:50 AM50 °FPassing clouds.1 mph94%30.12 "HgN/A
Weather by CustomWeather, © 2015

See weather overviewHow to use our weather pages